STARLINK-11671 [DTC] (64319 NORAD) Tracking and Keplerian Element Data

This shows tracking and keplerian element data for the satellite.

Feedback or suggestion? Click here.




ElementValue
Catalog64319
NameSTARLINK-11671 [DTC]
Epoch Orbit3027
Epoch Day353.81356678
Epoch Year2025
RAAN150.5316
Inclination43.0001
Eccentricity0.00015
Argument of Perigee287.489
Mean Anonmoly72.5814
Mean Motion15.70875782
Decay Rate0.0019808
L11 64319U 25124C 25353.81356678 .00198080 00000+0 15084-2 0 9994
L22 64319 43.0001 150.5316 0001500 287.4890 72.5814 15.70875782 30277



Live tracking and technical data element details for STARLINK-11671 [DTC] (NORAD 64319). STARLINK-11671 [DTC] can be tracked NOW for your location showing map with azimuth and elevation plus other details from your city location.







IsCatalogInMostPopularTable: catalog: 64319, numindb: 11
Update: records affected: 1



GetName: 64319 STARLINK-11671 [DTC]

Hit Count: updated at: Sat, 11 Apr 2026 21:45:10 GMT